Tarnby, Denmark
Current Conditions -  °F | °C
As of 4:20 AM on Thursday 23 Oct 2014 (Local Time) from EKCH Reporting Station
Broken Clouds Broken Clouds  
Wind Chill: 52°   Ceiling: 1800
Heat Index: 52°   Visibility: 6mi
Dew Point: 50°   Wind: 12mph
Humidity: 94%   Direction: 90°E
Pressure: 30.06"   Gusts: NA
Location:  55.63°N, 12.6°E
Report Text: EKCH 230220Z 09010KT 9999 FEW010 BKN018 11/10 Q1018 TEMPOBKN012
Loading
Personal Weather Stations






























Interactive Weather Map
Tropical Storm Tracking
New forecast layout! Learn more

10-Day Weather Forecast

Advertisements
Track Severe Weather on mobile